www.pogodaiklimat.ru

Погода и климат >> Архив погоды >> Эстония >> V?ru


ПОГОДА в V?ru

  • Прогноз погоды в V?ru
  • Монитор погоды в V?ru
  • Климат города

АРХИВ ПОГОДЫ в V?ru

Время (UTC), дата Ветер
(напр.,м/с)
 
Видим.   Явления Облачность Т
(С)
Тd
(С)
f
(%)
Тe
(С)
Тes
(С)
Комфортность P
(гПа)
Po
(гПа)
Тmin
(С)
Tmax
(С)
R
(мм)
R24
(мм)
S
(см)
19 18.06 З 3 20 км 5/1 800 м
[]
+18.5 +13.3 72 +19 +19 1014.5 1004.8 +18.5 +28.6
20 18.06 З 3 20 км слаб. дождь 9/0
[]
+17.7 +12.8 73 +18 +18 1014.8 1005.0 +17.7 +28.6
21 18.06 З 3 20 км в посл. час дождь 10/0
[]
+16.9 +10.6 66 +17 +17 1014.8 1005.0 +16.9 +28.6
23 18.06 З 3 20 км н/о +14.9 +10.9 77 +14 +14 1015.1 1005.3
22 18.06 З 2 20 км н/о +16.1 +11.0 72 +16 +16 1015.1 1005.3
00 19.06 ЮЗ 1 20 км н/о +13.7 +11.0 84 +14 +14 1014.8 1004.9
01 19.06 ЮЗ 1 20 км н/о +13.1 +10.7 85 +13 +13 1014.7 1004.8
02 19.06 Ю 1 20 км н/о +12.8 +10.7 87 +13 +13 1014.3 1004.4
03 19.06 ЮЗ 2 20 км ясно +14.3 +11.0 81 +14 +15 1014.2 1004.3 +12.7 +22.6
05 19.06 ЮЗ 2 20 км 5/5 500 м
[]
+16.4 +12.0 75 +17 +19 1013.8 1004.0 +12.7 +19.9
04 19.06 ЮЗ 3 20 км н/о +15.4 +11.5 78 +15 +15 1014.0 1004.2
06 19.06 Ю 2 20 км 5/5 630 м
[]
+17.8 +11.7 67 +18 +22 1013.1 1003.4 +12.7 +19.2
07 19.06 Ю 5 20 км н/о +18.6 +11.3 62 +19 +19 1012.2 1002.5
08 19.06 ЮЗ 3
{11}
20 км 9/9 1020 м
[]
+19.0 +10.5 58 +20 +21 1011.9 1002.3 +12.7 +19.2
09 19.06 ЮЗ 3
{11}
20 км 9/4 1170 м
[]
+19.4 +10.3 56 +21 +25 комфорт 1011.2 1001.6 +12.7 +20.1
11 19.06 ЮЗ 3 20 км н/о +19.3 +11.3 60 +21 +21 комфорт 1009.4 999.8
10 19.06 ЮЗ 4 20 км н/о +18.6 +11.0 61 +19 +19 1010.6 1001.0
12 19.06 Ю 3 20 км н/о +19.9 +11.5 58 +22 +22 комфорт 1008.0 998.4
13 19.06 ЮЗ 5 12 км н/о +16.8 +14.2 85 +16 +16 1008.3 998.6
14 19.06 ЮЗ 5 10 км н/о +15.8 +14.5 92 +15 +15 1008.2 998.4 0.7
15 19.06 З 7-14
{14}
20 км ливневой дождь 10/10 480 м
[]
+14.0 +11.8 87 +12 +12 1008.7 998.9 +14.0 +20.2 2
17 19.06 ЮЗ 4 20 км н/о +15.4 +11.8 79 +14 +14 1009.0 999.2
16 19.06 ЮЗ 3 20 км н/о +14.5 +12.1 86 +14 +14 1008.9 999.1
18 19.06 ЮЗ 2 20 км н/о +14.9 +11.8 82 +15 +15 1008.8 999.0 +13.8 +20.2
19 19.06 н/о
20 19.06 ЮЗ 2 20 км н/о +14.1 +12.1 88 +14 +14 1009.7 999.9
21 19.06 ЮЗ 2 20 км ясно +13.8 +11.3 85 +13 +13 1010.0 1000.2 +13.8 +20.2
23 19.06 ЮЗ 2 20 км н/о +12.4 +10.8 90 +11 +11 1010.3 1000.4
22 19.06 ЮЗ 2 20 км н/о +13.1 +10.6 85 +12 +12 1010.2 1000.3
00 20.06 н/о
01 20.06 ЮЗ 2 20 км н/о +11.8 +10.3 91 +11 +11 1010.2 1000.4
02 20.06 ЮЗ 3 20 км н/о +12.1 +10.4 89 +10 +10 1010.1 1000.2
03 20.06 ЮЗ 4
{8}
20 км ясно +12.7 +10.6 87 +11 +11 1010.3 1000.4 +11.8 +15.5
05 20.06 З 5-9
{9}
20 км 1/1 700 м
[]
+15.1 +10.1 72 +14 +16 1010.8 1001.0 +11.8 +15.5
04 20.06 ЮЗ 3 20 км н/о +13.9 +10.7 81 +13 +13 1010.4 1000.6
06 20.06 ЮЗ 5-9
{10}
20 км 3/3 870 м
[]
+16.1 +9.0 63 +15 +18 1010.8 1001.0 +11.8 +16.2
07 20.06 З 5-10
{13}
20 км 4/4 1050 м
[]
+16.4 +8.3 59 +16 +19 1010.9 1001.2 +11.8 +16.8
08 20.06 ЮЗ 5-10
{13}
20 км 6/6 1020 м
[]
+17.8 +9.3 57 +17 +20 1011.5 1001.8 +11.8 +17.8
09 20.06 З 6-11
{13}
20 км 4/4 1140 м
[]
+18.1 +8.8 55 +18 +21 1012.0 1002.3 +11.8 +18.1
11 20.06 ЮЗ 6-12
{14}
20 км 6/6 1300 м
[]
+19.4 +8.2 48 +20 +22 1012.6 1003.0 +11.8 +19.4
10 20.06 З 6-13
{14}
20 км 4/4 1380 м
[]
+17.7 +6.9 49 +17 +21 1012.6 1002.9 +11.8 +18.7
12 20.06 З 6-12
{14}
20 км 3/3 1320 м
[]
+18.5 +7.5 49 +18 +22 1012.6 1002.9 +11.8 +19.5
13 20.06 З 6-11
{13}
20 км 5/5 1500 м
[]
+18.8 +6.5 45 +19 +21 1012.7 1003.0 +11.8 +19.7
14 20.06 З 6-10
{13}
20 км 1/1 1500 м
[]
+18.3 +6.9 47 +18 +21 1012.8 1003.1 +12.1 +19.7
15 20.06 З 6-10
{13}
20 км 1/1 1500 м
[]
+19.0 +6.0 43 +19 +21 1012.6 1002.9 +12.7 +19.7
17 20.06 З 5-11
{13}
20 км 10/0
[]
+17.3 +7.0 51 +17 +17 1012.5 1002.7 +14.9 +19.7
16 20.06 З 5-9
{13}
20 км 9/0
[]
+17.7 +6.4 47 +17 +18 1012.7 1003.0 +13.9 +19.7
18 20.06 З 5-8
{12}
20 км 10/0
[]
+16.7 +7.1 53 +16 +16 1012.3 1002.6 +15.7 +19.7
19 20.06 З 4
{11}
20 км 5/0
[]
+15.6 +6.7 55 +15 +15 1012.2 1002.4 +15.5 +19.7
20 20.06 З 3
{10}
20 км 9/9 1500 м
[]
+14.8 +6.1 56 +14 +14 1012.3 1002.5 +14.8 +19.7
21 20.06 ЮЗ 2
{8}
20 км 10/9 1500 м
[]
+14.5 +6.9 60 +14 +14 1011.6 1001.8 +14.3 +19.7
23 20.06 Ю 1 20 км 10/10 1050 м
[]
+14.4 +8.0 65 +15 +15 1010.3 1000.5 +14.2 +19.7
22 20.06 ЮЗ 2 20 км 10/10 1260 м
[]
+14.3 +7.2 62 +14 +14 1011.1 1001.3 +14.3 +19.7
00 21.06 Ю 2 20 км н/о +13.2 +9.7 79 +13 +13 1009.4 999.6 0.3
01 21.06 ЮЗ 2 14 км н/о +13.5 +10.5 82 +13 +13 1009.1 999.3 0.1
02 21.06 ЮЗ 2 20 км н/о +13.3 +12.0 92 +13 +13 1008.5 998.7 0.3
03 21.06 ЮЗ 2
{8}
20 км {ливн. осадки, дождь} 10/10 420 м
[]
+14.5 +13.0 91 +14 +14 1008.4 998.6 +13.0 +19.0 0.4
05 21.06 ЮЗ 3
{8}
20 км слаб. дождь 9/9 330 м
[]
+16.0 +14.3 90 +16 +16 1008.4 998.6 +13.0 +17.3
04 21.06 ЮЗ 2 20 км н/о +15.5 +14.0 91 +15 +15 1008.6 998.8
06 21.06 ЮЗ 2 20 км н/о +16.6 +14.2 86 +17 +17 1008.4 998.7 +13.0 +16.7
07 21.06 Ю 2 20 км н/о +15.9 +15.1 95 +16 +16 1008.1 998.4 2
08 21.06 ЮЗ 4 20 км {ливн. осадки} 9/8 500 м
[]
+17.4 +14.8 85 +17 +18 1007.7 998.0 +13.0 +17.5 2
09 21.06 З 1
{9}
20 км слаб. ливневой дождь 9/9 500 м
[]
+16.6 +15.1 91 +17 +19 1007.6 997.9 +13.0 +17.5 4
11 21.06 ЮЗ 4 20 км н/о +24.7 +15.1 55 +28 +28 душно 1005.7 996.2
10 21.06 ЮЗ 2 20 км н/о +21.3 +15.6 70 +25 +25 комфорт 1006.6 997.1 0.1
12 21.06 Ю 3 20 км н/о +21.6 +15.3 67 +25 +25 комфорт 1005.1 995.6 0.4
13 21.06 Ю 2 20 км н/о +23.8 +15.6 60 +27 +27 жарко 1004.5 995.1
14 21.06 ЮЗ 2 20 км н/о +25.5 +12.8 45 +27 +27 жарко 1003.5 994.1
15 21.06 С 3 20 км 5/0 2000 м
[]
+23.2 +17.5 70 +29 +32 душно 1002.9 993.4 +14.5 +25.8
17 21.06 СЗ 3 20 км н/о +20.0 +17.9 88 +23 +23 комфорт 1001.8 992.3
16 21.06 СВ 2 20 км н/о +22.3 +18.1 77 +27 +27 душно 1002.0 992.5
18 21.06 С 2 20 км н/о +19.0 +17.3 90 +21 +21 комфорт 1000.7 991.1 +15.4 +25.8 0.8
19 21.06 З 2 18 км н/о +17.7 +16.2 91 +18 +18 1001.3 991.7 4
20 21.06 штиль 0 11 км н/о +17.0 +16.4 96 +17 +17 999.7 990.1 0.3
21 21.06 З 2 18 км {ливн. осадки, дождь} 9/1 180 м
[]
+16.7 +16.2 97 +17 +17 997.9 988.3 +16.5 +25.8 4
23 21.06 ЮЗ 3 9000 м н/о +16.9 +16.5 97 +17 +17 998.6 989.0 2
22 21.06 З 1 4400 м н/о +16.8 +16.4 97 +18 +18 998.1 988.5 0.4
00 22.06 н/о +14.3 +13.6 96 +23 +23 комфорт 998.3 988.6
01 22.06 ЮЗ 5 20 км н/о +15.5 +14.1 91 +14 +14 998.4 988.8 0.7
02 22.06 ЮЗ 3 20 км н/о +13.5 +11.7 89 +12 +12 999.6 989.9
03 22.06 ЮЗ 4
{10}
20 км 9/9 360 м
[]
+12.8 +10.9 88 +11 +11 1000.1 990.3 +12.8 +23.2 0.7
05 22.06 ЮЗ 3
{11}
20 км 9/6 450 м
[]
+12.4 +10.2 86 +11 +12 1001.4 991.6 +11.9 +20.0
04 22.06 ЮЗ 3 20 км н/о +12.3 +9.7 84 +11 +11 1001.1 991.3
06 22.06 ЮЗ 4-9
{11}
20 км 9/8 480 м
[]
+13.2 +9.6 79 +12 +12 1001.6 991.8 +11.9 +19.0
07 22.06 ЮЗ 4-10
{11}
20 км 8/4 870 м
[]
+14.4 +8.0 65 +13 +16 1001.8 992.1 +11.9 +17.7
08 22.06 ЮЗ 4-9
{11}
20 км 9/8 1020 м
[]
+15.8 +8.2 61 +15 +16 1002.4 992.7 +11.9 +17.0
09 22.06 ЮЗ 5-11
{12}
20 км 5/5 1260 м
[]
+15.9 +6.4 53 +15 +19 1002.5 992.8 +11.9 +16.9
11 22.06 ЮЗ 5-10
{14}
20 км 5/1 1500 м
[]
+18.0 +5.7 44 +18 +23 1002.9 993.3 +11.9 +18.5
10 22.06 ЮЗ 5-12
{12}
20 км 5/5 1500 м
[]
+17.9 +6.7 48 +18 +22 1002.6 993.0 +11.9 +17.9
12 22.06 Ю 7-13
{14}
20 км 4/4 1500 м
[]
+18.4 +4.4 40 +18 +20 1002.7 993.1 +11.9 +19.0
13 22.06 ЮЗ 6-12
{16}
20 км 4/4 1500 м
[]
+19.0 +4.3 38 +19 +21 1002.8 993.2 +11.9 +19.4
14 22.06 З 4
{16}
20 км 9/9 1500 м
[]
+16.2 +7.9 58 +16 +16 1003.7 994.0 +11.9 +19.8
15 22.06 ЮЗ 4
{16}
20 км в посл. час дождь 6/3 1500 м
[]
+14.6 +11.0 79 +13 +15 1005.6 995.8 +11.9 +19.8
17 22.06 З 6-12
{13}
20 км слаб. ливневой дождь 9/9 750 м
[]
+12.5 +8.2 75 +10 +10 1007.4 997.6 +12.4 +19.8
16 22.06 Ю 4-8
{13}
20 км в посл. час дождь {ливн. осадки} 9/4 840 м
[]
+14.8 +9.5 71 +14 +14 1006.1 996.4 +11.9 +19.8
18 22.06 ЮЗ 4-8
{13}
20 км в посл. час дождь {ливн. осадки} 6/6 1350 м
[]
+12.0 +8.6 80 +10 +10 1008.3 998.4 +11.6 +19.8
19 22.06 ЮЗ 3
{13}
20 км {ливн. осадки} 6/6 660 м
[]
+11.4 +8.2 81 +10 +10 1009.2 999.3 +11.4 +19.8
20 22.06 ЮЗ 3
{13}
20 км 9/9 570 м
[]
+11.2 +8.3 82 +9 +9 1009.8 999.9 +11.2 +19.8
21 22.06 ЮЗ 2
{9}
20 км 1/1 600 м
[]
+10.7 +8.2 85 +9 +9 1010.3 1000.4 +10.6 +19.8
23 22.06 ЮЗ 2 20 км ясно +9.3 +8.2 93 +7 +7 1011.2 1001.2 +9.2 +19.8
22 22.06 ЮЗ 2 20 км ясно +10.0 +8.1 88 +8 +8 1010.7 1000.8 +9.8 +19.8
00 23.06 н/о +9.9 +7.6 86 1011.5 1001.6
01 23.06 Ю 2 20 км н/о +9.0 +7.4 90 +7 +7 1011.9 1001.9
02 23.06 Ю 2 20 км н/о +9.4 +7.2 86 +8 +8 1011.9 1001.9
03 23.06 Ю 3 20 км 8/8 1020 м
[]
+11.0 +7.3 78 +9 +9 1012.1 1002.2 +8.8 +15.6
05 23.06 Ю 3 20 км ясно +13.6 +7.4 66 +13 +16 1012.3 1002.4 +8.8 +13.6
04 23.06 Ю 4 20 км н/о +11.9 +7.3 73 +10 +10 1012.2 1002.3
06 23.06 Ю 3 20 км ясно +15.2 +7.5 60 +15 +20 1012.2 1002.4 +8.8 +15.5
07 23.06 Ю 3 20 км н/о +16.8 +7.6 55 +17 +17 1011.8 1002.0
08 23.06 ЮЗ 3 20 км н/о +16.6 +6.1 50 +16 +16 1012.0 1002.2
09 23.06 ЮЗ 2 20 км 8/4 1380 м
[]
+17.5 +8.9 57 +18 +24 1011.8 1002.1 +8.8 +17.9
11 23.06 Ю 2 20 км н/о +19.2 +6.8 44 +20 +20 1011.6 1001.9
10 23.06 Ю 3 20 км н/о +18.2 +5.3 43 +18 +18 1011.6 1001.9
12 23.06 ЮЗ 2 20 км н/о +19.1 +7.1 46 +20 +20 1011.4 1001.7
13 23.06 ЮВ 3 20 км н/о +19.4 +6.0 42 +20 +20 1011.2 1001.6
14 23.06 Ю 2 20 км н/о +18.8 +6.5 45 +20 +20 1011.1 1001.4
15 23.06 Ю 2 20 км 9/8 2000 м
[]
+18.8 +7.1 46 +20 +21 1011.0 1001.3 +10.9 +19.9
17 23.06 З 2 20 км н/о +17.0 +9.1 60 +17 +17 1010.9 1001.2
16 23.06 С 2 20 км н/о +17.9 +9.1 56 +18 +18 1010.8 1001.1
18 23.06 СВ 1 17 км н/о +15.1 +8.7 66 +16 +16 1011.2 1001.4 +15.0 +19.9
19 23.06 н/о
20 23.06 С 1 17 км н/о +12.8 +11.0 89 +13 +13 1011.0 1001.1 2
21 23.06 Ю 1 19 км {дождь} 10/0 2000 м
[]
+12.6 +11.7 94 +13 +13 1010.9 1001.0 +12.4 +19.9 9
23 23.06 штиль 0 9000 м н/о +12.2 +11.6 96 +12 +12 1010.2 1000.3
22 23.06 СЗ 1 8000 м н/о +12.5 +11.7 95 +12 +12 1010.7 1000.8
00 24.06 н/о +11.7 +23 -12 комфорт 1010.2 1000.3
01 24.06 З 1 20 км н/о +12.3 +10.8 91 +12 +12 1009.6 999.7
02 24.06 С 1 13 км н/о +11.8 +10.5 92 +12 +12 1009.3 999.4
03 24.06 В 1 7000 м слаб. дождь 10/10 1380 м
[]
+11.9 +11.3 96 +12 +12 1009.2 999.3 +11.6 +19.2 0.6
05 24.06 18 км слаб. дождь 10/10 150 м
[]
+12.4 +11.9 97 1008.7 998.8 +11.6 +17.0 6
04 24.06 С 1 8000 м слаб. дождь 9/9 180 м
[]
+12.0 +11.7 98 +12 +12 1009.0 999.1 +11.6 +17.9 5
06 24.06 С 2 20 км в посл. час дождь 9/9 1500 м
[]
+12.4 +11.1 92 +11 +12 1008.0 998.1 +11.6 +16.0 6
07 24.06 СЗ 2 20 км {дождь} 9/4 210 м
[]
+12.1 +11.2 94 +11 +14 1007.4 997.6 +11.6 +13.5 2
08 24.06 С 3 20 км слаб. дождь 9/9 180 м
[]
+12.4 +11.6 95 +11 +12 1007.0 997.1 +11.6 +13.5 0.6
09 24.06 С 4 20 км слаб. ливневой дождь 10/10 240 м
[]
+12.4 +11.3 93 +10 +10 1006.3 996.5 +11.6 +12.7 0.2
11 24.06 С 3
{9}
6000 м сильн. ливневой дождь 10/10 270 м
[]
+11.7 +11.2 97 +10 +10 1005.3 995.4 +11.6 +12.6 3
10 24.06 С 4-8
{9}
20 км слаб. дождь {ливн. осадки} 10/10 270 м
[]
+12.1 +10.9 92 +10 +10 1005.3 995.5 +11.6 +12.6 0.2
12 24.06 С 3
{9}
6000 м дождь {ливн. осадки} 10/10 240 м
[]
+11.5 +10.8 95 +10 +10 1004.5 994.7 +11.5 +12.6 5
13 24.06 С 4
{9}
4200 м дождь {ливн. осадки} 10/10 150 м
[]
+11.3 +10.8 97 +9 +9 1004.0 994.2 +11.3 +12.6 8
14 24.06 С 5-11
{11}
3200 м слаб. дождь 10/10 150 м
[]
+11.2 +10.7 97 +8 +8 1003.4 993.5 +11.2 +12.6 6
15 24.06 С 5-9
{11}
3700 м дождь 10/10 120 м
[]
+11.6 +11.3 98 +9 +9 1002.7 992.8 +11.2 +12.6 7
17 24.06 С 2
{10}
20 км в посл. час осадки {дождь} 10/9 120 м
[]
+13.2 +12.9 98 +12 +12 1002.3 992.6 +11.2 +13.2 3
16 24.06 С 3
{11}
3000 м слаб. дождь 10/10 90 м
[]
+12.3 +12.1 99 +11 +11 1002.2 992.4 +11.2 +12.6 5
18 24.06 С 2
{8}
14 км слаб. ливневой дождь 10/10 120 м
[]
+13.5 +13.2 98 +13 +13 1002.6 992.8 +11.2 +13.5 2
19 24.06 В 1 20 км в посл. час дождь {ливн. осадки} 10/10 1140 м
[]
+12.9 +12.3 96 +13 +13 1003.1 993.3 +11.2 +13.6 6
20 24.06 Ю 2 20 км {ливн. осадки} 10/9 90 м
[]
+12.3 +11.9 97 +11 +11 1003.8 994.0 +11.2 +13.6 6
21 24.06 Ю 4 20 км {ливн. осадки} 10/10 120 м
[]
+11.2 +10.7 97 +9 +9 1004.9 995.0 +11.2 +13.6 5
23 24.06 Ю 4-9
{10}
8000 м в посл. час осадки {ливн. осадки, морось} 10/10 180 м
[]
+10.5 +9.9 96 +8 +8 1007.0 997.0 +10.4 +13.6
22 24.06 Ю 4-10
{10}
4800 м слаб. морось 10/10 150 м
[]
+10.5 +10.0 97 +8 +8 1006.2 996.3 +10.5 +13.6
00 25.06 Ю 4-8
{10}
16 км {ливн. осадки, морось} 10/10 180 м
[]
+10.5 +9.8 95 +8 +8 1007.4 997.5 +10.4 +13.6
01 25.06 Ю 4-10
{10}
15 км {ливн. осадки} 10/10 210 м
[]
+10.5 +9.7 95 +8 +8 1008.2 998.3 +10.4 +13.6
02 25.06 Ю 4 20 км н/о +10.6 +9.7 94 +8 +8 1009.0 999.1
03 25.06 Ю 3
{10}
20 км 10/10 330 м
[]
+10.9 +9.4 90 +9 +9 1009.9 1000.0 +10.4 +13.6
05 25.06 Ю 4
{8}
20 км 9/9 400 м
[]
+11.7 +8.8 82 +10 +10 1011.7 1001.7 +10.4 +13.6
04 25.06 Ю 3 20 км н/о +11.1 +9.3 89 +9 +9 1010.9 1000.9
06 25.06 Ю 4
{8}
20 км 5/5 480 м
[]
+12.5 +7.8 73 +11 +13 1012.1 1002.2 +10.4 +13.6
07 25.06 Ю 4
{9}
20 км 3/3 630 м
[]
+13.5 +8.4 71 +12 +17 1012.8 1002.9 +10.4 +13.8
08 25.06 Ю 4
{9}
20 км 9/9 700 м
[]
+14.5 +8.4 67 +13 +14 1013.4 1003.5 +10.4 +15.1
09 25.06 Ю 4-9
{9}
20 км 9/9 840 м
[]
+15.2 +8.0 62 +14 +15 1013.8 1004.0 +10.4 +15.5
11 25.06 Ю 3 20 км н/о +18.0 +8.8 55 +18 +18 1014.8 1005.1
10 25.06 Ю 4
{9}
20 км 9/9 930 м
[]
+15.9 +8.4 61 +15 +16 1014.5 1004.7 +10.4 +16.2
12 25.06 ЮЗ 2 20 км н/о +17.9 +8.5 54 +18 +18 1015.2 1005.5
13 25.06 З 2 20 км н/о +19.0 +9.3 53 +20 +20 1015.2 1005.5
14 25.06 ЮВ 3 18 км н/о +16.7 +10.0 65 +17 +17 1016.1 1006.3
15 25.06 ЮЗ 3
{8}
20 км слаб. ливневой дождь 10/0 2000 м
[]
+12.7 +11.1 90 +11 +13 1017.3 1007.4 +10.9 +19.3 2
17 25.06 В 2 20 км н/о +15.7 +10.5 71 +16 +16 1017.3 1007.5
16 25.06 ЮЗ 1 20 км н/о +15.6 +11.0 74 +16 +16 1017.0 1007.1
18 25.06 СВ 1 20 км н/о +15.2 +10.5 74 +16 +16 1017.9 1008.0 +12.5 +19.3

 

Местоположение метеостанции V?ru (Эстония): широта 57.85 долгота 27.02 высота над уровнем моря 83 м.

В архиве по умолчанию представлена погода в V?ru за последнюю неделю. Архивные данные за месяц целиком и за предыдущие месяцы, начиная с января 2011 года, Вы можете получить, выбрав интересующий диапазон дат из раскрывающегося списка и нажав кнопку "Ввод!".


*Определитесь, кто Вы:
робот инопланетянин человек

Внимание! Время в таблицах - всемирное. Для получения местного времени необходимо прибавить поправку, которая в V?ru равна 2 ч.

Смотрите также архив погоды в соседних городах и на ближайших метеорологических станциях:

Погода в Al?ksnes (Латвия) (47 км)
Погода в Tartu (Эстония) (53 км)
Погода в Valga (Эстония) (59 км)
Погода в Пскове (Псковская область, Россия) (78 км)
Погода в Gulbene (Латвия) (82 км)
Погода в R?jienas (Латвия) (97 км)
Погода в Viljandi (Эстония) (102 км)
Погода в Zoseni (Латвия) (104 км)
Погода в Jogeva (Эстония) (106 км)
Погода в Гдове (Псковская область, Россия) (109 км)

Пояснения к столбцам:

Ветер - указаны скорость ветра в м/с - средняя за 10 мин, порывы в срок и между сроками (в фигурных скобках) и направление, откуда дует ветер: С - северный, СВ - северо-восточный, В - восточный, ЮВ - юго-восточный, Ю - южный, ЮЗ - юго-западный, З - западный, СЗ - северо-западный.
Видимость - горизонтальная дальность видимости в метрах или километрах. При видимости от 1 до 10 км при отсутствии осадков обычно наблюдается дымка, при ухудшении видимости до 1 км и менее - туман. В сухую погоду видимость может ухудшаться дымом, пылью или мглою.
Явления - указаны атмосферные явления, наблюдавшиеся в срок или в последний час перед сроком; фигурными скобками обозначены явления, наблюдавшиеся между сроками (за 1-3 часа до срока); квадратными скобками обозначены град или гололедные отложения с указанием их диаметра в мм.
Облачность - указаны через наклонную черту общая и нижняя облачность в баллах и высота нижней границы облаков в метрах; квадратными скобками обозначены формы облаков: Ci - перистые, Cs - перисто-слоистые, Cc - перисто-кучевые, Ac - высококучевые, As - высокослоистые, Sc - слоисто-кучевые, Ns - слоисто-дождевые, Cu - кучевые, Cb - кучево-дождевые. Подробнее классификацию облаков см. в Атласе облаков (PDF).
T - Температура воздуха - температура, измеренная на высоте 2 м над землей.
Td - Температура точки росы - температура, при понижении до которой содержащийся в воздухе водяной пар достигнет насыщения.
f - Относительная влажность воздуха - влажноcть воздуха, измеренная на высоте 2 м над землей.
Te - Эффективная температура - температура, которую ощущает одетый по сезону человек в тени. Характеристика душности погоды. При расчете учитывается влияние влажности воздуха и скорости ветра на теплоощущения человека.
Tes - Эффективная температура на солнце - температура, которую ощущает человек, с поправкой на солнечный нагрев. Характеристика знойности погоды. Зависит от высоты солнца над горизонтом, облачности и скорости ветра. Ночью, в пасмурную погоду, а также при ветре 12 м/с и более поправка равна нулю.
P - Атмосферное давление - приведенное к уровню моря атмосферное давление.
Po - Атмосферное давление - измеренное на уровне метеостанции атмосферное давление.
Tmin - Минимальная температура - минимум температуры воздуха на высоте 2 м над землей.
Tmax - Максимальная температура - максимум температуры воздуха на высоте 2 м над землей.
R - Количество осадков - Количество выпавших осадков за период времени, мм. При наведении курсора мыши на число - период времени, за который выпало указанное количество осадков.
R24 - Количество осадков - Количество выпавших осадков за 24 часа, мм.
S - Снежный покров - Высота снежного покрова, см. При наведении курсора мыши на число - состояние снежного покрова и степень покрытия местности в баллах.